Temperature
12 12 12 12 12 12 11 11 12 12 12 12 11 11 12 12 12 11 11 12 12 12 12 12 12 12 12 12 12 12 12 12 12 12 12 12 12 11
11 11 11 11 11 11 11 11 11 11 12 12 11 11 11 11 11 11 11 12 12 12 12 12 12 12 12 12 12 12 12 12 12 12 12 12 11 11
11 11 11 11 11 11 11 11 11 11 11 11 11 11 11 11 11 11 11 11 11 11 11 11 11 11 12 11 11 11 11 11 11 11 11 11 11 11
10 10 11 11 11 11 11 11 11 10 10 10 10 10 10 10 10 10 11 11 10 11 11 11 11 11 11 11 11 11 11 11 11 11 11 11 11 11
9 10 10 10 10 10 10 10 10 10 10 10 10 10 10 10 10 10 10 10 10 10 11 11 11 11 11 11 11 11 11 11 11 11 10 10 10 10
9 9 9 9 10 10 10 10 10 10 10 10 9 9 9 10 9 9 10 10 10 10 10 10 10 11 11 11 11 11 11 10 10 10 10 10 10 10
9 9 9 9 9 9 9 9 9 9 9 9 9 9 9 9 9 9 9 9 9 9 9 9 10 10 10 10 10 10 10 10 10 10 10 10 10 10
8 8 8 8 9 9 9 9 9 9 9 9 9 9 9 9 9 9 9 9 9 9 9 9 9 9 9 9 10 10 10 10 10 10 10 10 10 10
8 8 8 8 8 8 8 9 9 9 9 8 8 8 8 8 8 8 8 8 8 9 9 9 9 9 9 9 9 10 10 10 10 10 10 10 10 10
7 7 7 7 8 8 8 8 8 8 8 8 8 8 8 8 8 8 8 8 8 8 8 8 8 8 8 8 9 9 9 9 9 9 9 9 9 9
7 7 7 7 7 7 7 7 7 8 8 8 8 7 7 8 8 7 7 7 8 8 8 8 8 8 8 8 8 8 8 8 8 9 9 9 9 9
7 7 7 7 7 7 7 7 7 7 7 7 7 7 7 7 7 7 7 7 7 7 7 7 7 7 7 8 7 7 8 8 8 8 8 8 8 8
6 6 7 7 7 7 7 6 6 6 6 6 6 7 6 6 6 7 7 7 7 7 7 7 7 7 7 7 7 7 7 7 7 7 8 8 8 8
6 6 6 6 6 6 6 6 6 6 6 6 6 6 6 6 6 6 6 6 6 6 6 6 6 6 6 6 6 7 6 6 7 7 7 7 7 7
5 5 6 6 6 6 6 6 6 6 5 6 6 6 6 6 6 6 6 6 6 6 6 6 6 6 6 6 6 6 6 6 6 6 6 6 7 7
5 5 5 5 5 5 5 5 5 5 5 5 5 5 5 5 5 5 5 5 5 5 5 5 5 5 5 5 5 5 5 5 5 6 6 6 6 6
5 5 5 5 5 5 5 5 5 5 5 5 5 5 5 5 5 5 4 4 4 5 5 5 5 5 5 5 5 5 5 5 5 5 5 5 5 5
4 4 4 4 4 4 4 4 4 4 4 4 4 4 4 4 4 4 4 4 4 4 4 4 4 4 4 4 5 5 5 5 4 4 4 4 5 5
4 4 4 4 4 4 4 4 4 4 4 4 4 4 4 4 3 3 3 3 3 4 4 4 4 4 4 4 4 4 4 4 4 4 4 4 4 5
4 4 3 3 3 3 3 4 3 3 3 3 3 3 3 3 3 3 3 3 3 3 3 3 3 3 3 3 3 4 4 4 4 4 4 4 4 4
3 3 3 3 3 3 3 3 3 3 3 3 3 3 3 2 2 2 2 2 2 2 2 2 3 3 3 3 3 3 3 3 3 3 3 3 3 3
3 3 3 3 3 3 3 3 3 3 2 2 2 2 2 2 2 2 2 2 2 2 2 2 2 2 2 2 2 2 3 3 3 3 3 3 3 3
3 3 3 3 3 3 2 2 2 2 2 2 2 2 2 2 2 2 2 2 1 1 1 1 1 1 1 2 2 2 2 2 2 2 2 3 3 2
Wind_Speed
3 4 3 3 3 4 4 4 5 5 4 3 2 2 2 2 1 2 2 1 1 2 2 1 1 2 2 3 3 4 3 3 3 3 3 3 2 3
2 3 3 3 3 3 4 4 5 5 4 3 2 2 2 2 2 3 2 1 1 1 2 1 1 1 1 2 2 2 3 3 3 4 3 3 3 2
3 3 3 3 3 3 3 3 4 4 5 4 3 2 3 3 2 3 3 2 1 2 2 2 2 2 2 2 2 2 3 3 3 4 4 4 4 4
3 3 3 2 3 3 3 3 3 4 4 4 3 3 3 3 3 2 2 2 2 2 2 3 2 2 2 2 3 3 3 3 3 4 5 5 6 5
3 3 3 3 4 3 4 4 3 3 3 4 3 3 3 2 3 2 2 2 2 1 3 4 4 4 4 4 3 3 3 3 4 5 6 6 6 6
3 3 3 3 4 4 4 4 4 3 3 3 3 2 3 2 3 3 2 2 2 2 2 2 3 4 5 5 4 4 4 4 4 5 6 6 6 6
3 3 3 3 4 4 3 4 4 3 3 3 3 3 2 2 3 3 3 3 3 2 3 2 3 3 3 4 5 4 4 5 5 5 6 7 7 7
3 3 3 3 3 4 4 4 4 4 4 4 4 4 4 3 3 4 4 3 3 2 3 3 2 2 2 1 1 3 3 3 4 5 6 7 8 8
3 3 3 3 4 4 4 5 5 4 5 5 5 4 4 4 4 4 4 4 4 2 3 4 3 3 2 1 3 3 3 2 3 4 4 6 7 9
3 3 3 4 3 4 4 4 4 4 4 5 5 5 4 4 4 5 5 5 5 2 2 4 3 3 3 2 4 3 2 2 2 3 4 4 5 7
3 3 4 4 3 5 4 4 4 3 2 3 4 4 4 3 3 3 3 4 4 3 2 3 3 4 4 4 3 5 3 3 2 2 3 4 5 6
3 3 2 3 3 4 4 4 4 4 3 3 4 4 4 3 3 4 4 4 5 4 2 3 3 3 3 3 3 3 3 4 4 4 4 4 5 5
3 3 2 1 3 4 5 4 4 4 4 3 3 3 3 3 4 4 4 5 5 4 3 3 4 4 4 3 3 3 3 3 3 4 5 5 5 5
3 3 2 2 3 4 4 3 3 4 3 2 3 3 3 3 3 4 4 5 5 6 4 4 4 4 4 5 3 3 3 3 3 3 3 3 5 7
3 3 3 3 4 4 3 3 3 3 3 3 3 3 3 3 3 3 4 4 5 5 5 4 5 4 4 5 4 3 3 3 3 3 3 3 3 4
4 2 2 2 2 2 2 3 2 2 3 3 3 3 2 2 2 2 3 3 4 4 4 5 5 5 5 5 4 4 3 3 3 3 3 3 4 4
4 3 2 2 2 2 2 2 2 2 2 2 2 2 2 2 2 2 2 3 3 4 3 3 5 5 5 5 4 4 4 4 4 4 4 4 4 5
4 3 3 3 3 3 3 2 2 2 2 2 2 2 2 3 2 2 2 3 3 3 3 3 3 3 4 4 4 5 5 5 4 4 4 5 6 5
3 3 3 3 4 3 3 2 2 2 2 2 2 2 2 2 2 2 2 3 3 3 3 3 3 3 5 5 4 5 6 5 4 4 5 5 6 5
3 3 3 3 4 3 3 2 2 2 2 2 2 2 2 2 2 3 3 3 4 4 3 3 3 4 5 6 5 4 6 6 5 5 5 5 6 5
3 3 3 3 3 3 3 2 2 2 2 2 3 3 3 3 3 3 3 4 4 4 4 4 4 5 5 4 4 4 3 5 6 5 5 5 5 5
3 3 3 3 3 3 3 3 3 3 3 3 3 3 3 3 3 4 4 4 4 4 4 4 3 3 3 4 5 5 4 3 4 5 6 5 4 5
3 3 3 3 3 3 3 3 4 3 3 3 3 3 3 3 4 4 4 4 4 4 3 3 3 3 3 4 5 5 5 4 3 3 4 5 7 8
Wind_Direction
271 263 258 257 258 263 263 262 266 265 253 245 246 258 262 265 310 267 262 91 316 322 320 299 228 230 241 233 227 219 220 215 192 175 173 182 171 171
282 273 268 263 261 258 257 256 261 269 266 261 257 256 253 252 255 268 274 155 210 264 294 285 274 267 260 250 235 213 208 199 198 194 183 175 171 174
271 264 261 267 260 257 255 254 255 259 261 267 263 264 253 256 250 264 264 260 236 182 227 262 262 264 272 265 238 213 202 208 215 208 197 195 189 180
273 272 272 262 263 264 256 252 252 252 250 258 271 269 263 263 262 257 260 263 264 159 203 230 240 245 244 247 251 226 211 216 221 214 209 200 189 186
274 273 276 267 261 261 250 250 248 248 245 249 263 273 262 266 266 261 263 281 273 224 203 212 227 232 227 225 230 219 213 217 224 219 207 199 192 193
288 281 279 280 274 270 255 248 244 238 234 243 253 262 256 256 251 251 259 269 269 272 267 243 218 220 215 211 216 222 223 223 219 213 204 201 201 202
290 290 297 307 316 295 275 256 244 240 237 237 242 253 261 256 254 253 260 264 250 260 266 255 239 236 218 210 215 226 226 221 219 215 207 205 208 211
279 284 288 281 294 271 267 270 260 244 240 238 241 250 258 265 269 266 263 260 256 261 266 260 244 237 222 205 147 192 204 212 222 221 219 216 216 217
277 282 288 299 291 282 247 232 237 245 257 254 250 258 261 263 262 264 263 259 264 263 257 258 249 245 233 158 133 165 186 214 235 229 233 229 224 221
278 286 290 299 311 303 276 255 249 244 244 250 260 268 276 276 260 261 267 261 256 249 242 254 256 257 246 216 148 156 169 209 239 236 240 236 225 221
279 288 288 291 332 312 283 267 257 252 234 249 289 298 312 310 290 264 267 257 259 248 230 257 261 261 247 226 188 178 197 218 241 246 246 248 235 228
278 280 289 300 320 304 275 268 263 266 265 248 249 258 266 254 243 249 255 256 260 257 234 248 258 258 247 231 226 223 223 225 229 234 246 252 239 234
275 280 290 275 290 288 282 273 284 289 267 260 259 260 266 267 254 249 252 252 255 257 260 238 258 258 258 257 242 240 238 248 239 239 238 238 223 225
276 280 294 283 274 274 277 287 283 275 270 263 262 263 266 269 265 263 254 249 251 257 263 247 251 253 259 259 258 257 253 254 246 243 251 238 225 223
278 303 305 275 264 259 252 257 248 249 254 256 264 270 272 276 279 278 270 258 253 255 260 250 248 249 249 253 256 259 261 258 249 252 256 250 243 238
272 261 251 253 273 280 250 238 245 255 257 257 269 277 280 279 276 277 275 271 263 257 250 244 241 239 245 250 251 258 257 250 251 251 256 259 259 247
266 258 258 257 267 286 269 265 257 243 248 262 267 274 273 269 272 278 275 268 267 268 259 247 238 233 240 254 252 248 252 254 249 245 246 253 251 252
249 245 253 262 266 273 265 255 255 257 261 261 264 270 277 273 274 276 265 266 272 274 274 268 245 231 234 241 242 255 256 259 260 248 241 247 253 255
235 248 259 265 270 272 270 255 253 260 269 270 273 276 278 281 282 276 273 270 269 275 278 278 263 247 247 255 238 223 250 258 257 251 244 245 254 260
241 251 259 266 270 270 269 263 257 259 260 266 268 274 280 281 282 281 276 275 271 273 276 280 269 264 261 267 270 265 228 244 250 251 254 253 254 259
249 254 261 266 269 271 271 269 265 263 266 266 269 272 272 272 274 281 282 281 272 269 273 278 282 273 270 274 268 268 258 227 249 257 257 255 256 256
259 259 264 269 271 272 269 266 267 268 268 265 269 273 273 269 268 271 278 282 279 278 281 288 289 281 266 258 264 273 276 269 245 249 255 257 260 256
269 268 269 271 271 273 272 265 264 266 266 267 269 271 273 273 273 272 274 275 279 281 285 297 298 284 278 276 275 276 276 276 270 261 255 241 249 266
Height
1526 1526 1525 1525 1525 1524 1524 1524 1525 1524 1523 1522 1522 1521 1520 1520 1519 1519 1519 1518 1517 1517 1517 1517 1517 1518 1518 1518 1518 1518 1519 1519 1520 1520 1520 1521 1522 1522
1523 1523 1523 1522 1522 1521 1521 1521 1521 1522 1521 1520 1519 1519 1518 1518 1517 1517 1517 1516 1515 1515 1515 1515 1515 1516 1516 1516 1516 1516 1517 1517 1518 1519 1519 1519 1520 1521
1521 1520 1520 1519 1519 1518 1518 1518 1518 1518 1518 1517 1517 1516 1516 1515 1515 1514 1514 1514 1513 1512 1512 1512 1513 1513 1513 1513 1514 1514 1515 1515 1516 1517 1517 1518 1518 1519
1518 1517 1517 1516 1516 1515 1515 1515 1515 1515 1515 1514 1514 1514 1514 1513 1513 1512 1512 1512 1511 1510 1510 1510 1510 1510 1511 1511 1512 1512 1513 1513 1514 1515 1515 1516 1516 1517
1515 1515 1514 1514 1513 1512 1512 1512 1512 1512 1512 1512 1511 1511 1511 1510 1510 1510 1510 1509 1509 1508 1508 1508 1507 1507 1508 1508 1509 1509 1510 1510 1511 1512 1513 1514 1514 1515
1512 1512 1511 1511 1510 1510 1509 1509 1509 1509 1509 1509 1509 1508 1508 1507 1508 1508 1507 1506 1506 1506 1505 1505 1505 1505 1505 1505 1506 1506 1507 1508 1508 1509 1510 1511 1511 1512
1510 1509 1509 1508 1507 1507 1506 1506 1506 1506 1506 1506 1506 1506 1505 1505 1505 1505 1504 1504 1504 1503 1503 1503 1503 1502 1502 1502 1502 1503 1503 1504 1505 1506 1507 1507 1508 1509
1507 1506 1506 1505 1504 1503 1503 1503 1503 1503 1503 1503 1503 1503 1503 1502 1502 1502 1502 1502 1502 1502 1501 1501 1500 1500 1500 1499 1499 1499 1500 1501 1502 1503 1503 1504 1505 1506
1504 1503 1502 1502 1501 1501 1500 1500 1500 1499 1500 1500 1500 1500 1500 1500 1499 1499 1499 1499 1499 1498 1498 1498 1498 1497 1497 1496 1496 1496 1497 1497 1498 1499 1500 1501 1501 1501
1501 1500 1500 1499 1498 1497 1497 1497 1496 1496 1496 1496 1497 1497 1497 1497 1497 1497 1496 1496 1496 1496 1495 1496 1495 1495 1494 1494 1493 1493 1494 1494 1495 1496 1496 1497 1497 1498
1498 1497 1496 1496 1495 1494 1494 1494 1493 1493 1493 1493 1493 1493 1493 1493 1493 1493 1493 1493 1493 1493 1493 1493 1493 1492 1491 1491 1491 1491 1491 1491 1492 1492 1493 1493 1494 1495
1495 1494 1493 1492 1492 1491 1491 1491 1490 1490 1490 1489 1489 1489 1489 1489 1489 1489 1490 1490 1490 1490 1489 1489 1489 1489 1489 1489 1488 1488 1488 1488 1488 1489 1489 1490 1491 1492
1492 1491 1490 1489 1489 1488 1488 1487 1487 1487 1487 1487 1486 1486 1486 1486 1486 1486 1486 1486 1486 1486 1487 1486 1486 1486 1487 1486 1485 1485 1485 1485 1485 1485 1486 1487 1487 1488
1489 1488 1487 1486 1485 1485 1484 1484 1484 1484 1484 1484 1483 1483 1483 1482 1482 1482 1482 1482 1482 1483 1482 1482 1482 1482 1482 1483 1482 1482 1482 1481 1481 1482 1482 1483 1484 1484
1486 1485 1484 1483 1483 1482 1481 1480 1480 1480 1480 1480 1480 1480 1479 1479 1479 1478 1478 1478 1478 1478 1478 1478 1478 1478 1478 1479 1479 1478 1478 1478 1478 1478 1478 1479 1479 1480
1483 1482 1481 1480 1479 1478 1478 1477 1477 1477 1477 1477 1477 1477 1476 1476 1475 1474 1474 1473 1473 1473 1473 1473 1473 1474 1474 1474 1475 1475 1475 1475 1474 1475 1475 1475 1475 1476
1479 1479 1478 1477 1476 1475 1475 1474 1474 1474 1474 1474 1474 1473 1473 1472 1472 1471 1471 1470 1470 1470 1469 1469 1469 1469 1470 1471 1470 1470 1471 1471 1471 1471 1471 1471 1471 1471
1476 1476 1475 1474 1473 1472 1472 1471 1471 1471 1471 1471 1471 1470 1470 1469 1469 1468 1468 1467 1467 1466 1466 1466 1465 1466 1466 1466 1466 1466 1466 1466 1467 1467 1467 1467 1467 1468
1473 1473 1472 1471 1471 1470 1469 1468 1468 1468 1468 1468 1468 1467 1467 1466 1466 1465 1465 1464 1463 1463 1463 1462 1462 1462 1462 1462 1461 1462 1462 1462 1462 1462 1462 1462 1462 1463
1470 1469 1469 1468 1467 1467 1466 1465 1465 1465 1465 1465 1464 1464 1464 1463 1463 1462 1462 1461 1460 1460 1459 1459 1458 1458 1458 1458 1458 1457 1458 1457 1457 1457 1458 1458 1458 1458
1466 1466 1465 1465 1464 1464 1463 1463 1462 1462 1462 1462 1461 1461 1461 1460 1460 1459 1458 1458 1457 1456 1455 1455 1454 1454 1454 1454 1454 1453 1454 1453 1453 1453 1453 1453 1453 1453
1463 1463 1462 1462 1461 1461 1460 1460 1459 1459 1459 1458 1458 1458 1457 1457 1456 1456 1455 1454 1453 1452 1452 1451 1451 1451 1450 1450 1449 1449 1449 1449 1449 1448 1449 1449 1448 1448
1460 1460 1459 1459 1458 1458 1457 1457 1456 1456 1455 1455 1455 1454 1454 1454 1453 1453 1452 1451 1450 1449 1448 1447 1447 1446 1446 1446 1445 1445 1445 1444 1444 1444 1444 1444 1444 1444